Location: Benque
(43.2594°N, 0.9178°E)
Time: 01:22:51
(UTC+00:00)

CORIOLIS - Pass Details

Date: 24 January 2020
Orbit: 818 x 839 km, 98.7° (Epoch: 19 February)

Event Time Altitude Azimuth Distance (km) Brightness Sun altitude
Rises 17:16:09 0° 159° (SSE) 3,351 7.3 -4.0°
Reaches altitude 10° 17:18:30 10° 157° (SSE) 2,419 6.6 -4.4°
Maximum altitude 17:23:50 74° 74° (ENE) 859 4.1 -5.3°
Drops below altitude 10° 17:29:11 10° 350° (N) 2,425 6.5 -6.2°
Sets 17:31:32 0° 349° (NNW) 3,360 7.2 -6.6°
